PBO Station Position Time Series. Reference Frame : NAM14
Format Version,1.1.0
4-character ID,DNRC
Station name,Dover_Delaware
Begin Date, 1998-03-28
End Date, 2019-10-07
Release Date, 2019-10-08
Reference position, 39.1600877780 North Latitude, -75.5236001023 East Longitude, -15.19743 meters elevation,
Date, North (mm), East (mm), Vertical (mm), North Std. Deviation (mm), East Std. Deviation (mm),              Vertical Std. Deviation (mm), Quality,
1998-03-28,0.00, 0.00, 0.00, 2.24, 1.81, 8.15, repro,
1998-03-29,-1.39, -0.45, -4.58, 2.35, 1.88, 8.50, repro,
1998-03-30,-0.44, -1.64, -0.91, 2.31, 1.83, 8.14, repro,
1998-03-31,1.78, -1.18, 0.20, 2.55, 2.00, 8.92, repro,
1998-04-01,-0.52, -2.01, 0.96, 2.30, 1.86, 8.42, repro,
1998-04-02,0.24, -0.62, -1.34, 2.37, 1.93, 8.47, repro,
1998-04-03,-2.10, -0.77, -8.62, 2.36, 1.93, 8.63, repro,
1998-04-04,1.60, -0.29, -1.16, 2.51, 1.98, 8.89, repro,
1998-04-05,0.38, -0.42, -0.69, 2.30, 1.84, 8.25, repro,
1998-04-06,0.11, -1.73, 0.79, 2.44, 1.91, 8.38, repro,
1998-04-07,-0.55, -1.02, -4.83, 2.46, 1.96, 8.71, repro,
1998-04-08,-1.22, -1.45, -4.10, 2.50, 1.92, 8.58, repro,
1998-04-09,-2.80, -2.75, -4.11, 2.43, 1.88, 8.45, repro,
1998-04-10,0.02, -0.38, 3.39, 2.31, 1.84, 8.37, repro,
1998-04-11,-0.16, -3.63, -8.46, 2.51, 1.98, 8.78, repro,
1998-04-12,1.44, -2.92, -11.77, 2.48, 2.01, 8.91, repro,
1998-04-13,1.36, -1.98, -15.21, 2.31, 1.87, 8.26, repro,
1998-04-14,-2.14, -3.44, -11.91, 2.22, 1.81, 8.24, repro,
1998-04-15,-0.44, -3.28, 0.65, 2.39, 1.94, 8.75, repro,
1998-04-16,-0.47, -1.97, 3.16, 2.40, 1.93, 8.54, repro,
1998-04-17,2.53, -0.32, -13.65, 2.41, 1.98, 8.69, repro,
1998-04-18,-0.51, -2.64, -9.08, 2.31, 1.84, 8.26, repro,
1998-04-19,-2.77, -4.08, -2.26, 2.71, 2.14, 9.54, repro,
1998-04-20,-0.69, -2.14, 7.22, 2.28, 1.82, 8.19, repro,
1998-04-21,-2.47, -1.66, -3.62, 2.37, 1.91, 8.60, repro,
1998-04-22,-2.97, -3.36, -3.73, 2.43, 1.91, 8.65, repro,
1998-04-23,-0.87, -2.49, -13.94, 2.19, 1.76, 8.16, repro,
1998-04-24,-2.42, -0.20, -9.68, 2.14, 1.76, 7.89, repro,
1998-04-25,-2.02, -0.78, -7.77, 2.16, 1.76, 7.90, repro,
1998-04-26,-2.36, -2.60, -4.07, 2.20, 1.81, 8.12, repro,
1998-04-27,-0.27, -2.34, -2.96, 2.17, 1.76, 7.98, repro,
1998-04-28,-1.45, -1.67, -12.03, 2.25, 1.76, 8.11, repro,
1998-04-29,-0.72, -3.29, -7.69, 2.18, 1.79, 7.98, repro,
1998-04-30,-0.74, -2.15, -10.39, 2.14, 1.73, 7.91, repro,
1998-05-01,-1.67, -3.59, -12.06, 2.19, 1.77, 8.09, repro,
1998-05-02,-2.91, 0.51, -6.45, 2.26, 1.80, 8.29, repro,
1998-05-03,-1.65, -0.46, -2.02, 2.19, 1.76, 8.05, repro,
1998-05-04,-1.70, -2.53, -5.17, 2.33, 1.87, 8.62, repro,
1998-05-05,-2.54, -2.02, 0.60, 2.21, 1.79, 8.17, repro,
1998-05-06,-2.85, 0.63, -7.64, 2.26, 1.81, 8.22, repro,
1998-05-07,-1.29, -0.41, -8.62, 2.29, 1.88, 8.58, repro,
1998-05-08,-0.93, -0.18, -7.38, 2.20, 1.79, 8.15, repro,
1998-05-09,-0.88, -0.48, 1.95, 2.21, 1.77, 8.05, repro,
1998-05-10,-3.02, 1.01, -8.63, 2.20, 1.76, 8.06, repro,
1998-05-11,-2.63, 0.76, -2.12, 2.21, 1.77, 8.13, repro,
1998-05-12,-1.72, 0.45, -7.72, 2.17, 1.76, 8.02, repro,
1998-05-13,-1.53, 1.89, -5.64, 2.24, 1.83, 8.30, repro,
1998-05-14,-2.63, 1.18, -6.76, 2.18, 1.76, 7.97, repro,
1998-05-15,-2.05, 0.94, -1.50, 2.25, 1.80, 8.36, repro,
1998-05-16,-1.90, 2.29, -7.45, 2.18, 1.75, 8.13, repro,
1998-05-17,-3.09, -0.53, -7.13, 2.24, 1.79, 8.30, repro,
1998-05-18,-2.78, -1.93, -11.61, 2.29, 1.82, 8.46, repro,
1998-05-19,-3.63, -3.64, -0.57, 2.26, 1.81, 8.34, repro,
1998-05-20,-2.42, -2.88, 1.61, 2.21, 1.78, 8.14, repro,
1998-05-21,-4.11, -3.27, -11.52, 2.42, 1.90, 8.94, repro,
1998-05-22,-2.96, -3.51, -1.72, 2.28, 1.80, 8.41, repro,
1998-05-23,-3.28, -5.68, -5.72, 2.42, 1.98, 9.10, repro,
1998-05-24,-3.44, -5.44, -2.01, 2.23, 1.78, 8.25, repro,
1998-05-25,-4.96, -7.08, 7.27, 2.42, 1.87, 8.94, repro,
1998-05-26,-1.27, -5.90, -0.04, 2.35, 1.88, 8.82, repro,
1998-05-27,-5.03, -3.79, -1.33, 2.38, 1.94, 8.86, repro,
1998-05-28,-2.67, -5.77, 1.69, 2.28, 1.81, 8.44, repro,
1998-05-29,-2.80, -6.94, 6.28, 2.35, 1.86, 8.62, repro,
1998-05-30,-4.86, -3.41, -1.44, 2.44, 1.98, 9.13, repro,
1998-05-31,-3.48, -4.34, -1.42, 2.39, 1.84, 8.63, repro,
1998-06-01,-2.04, -5.77, 16.82, 2.50, 1.99, 9.35, repro,
1998-06-02,-4.09, -5.93, 8.55, 2.32, 1.84, 8.63, repro,
1998-06-03,-6.93, -7.88, 17.01, 2.42, 1.95, 9.19, repro,
1998-06-04,-3.55, -4.96, 14.84, 2.34, 1.89, 8.84, repro,
1998-06-05,-1.37, -4.59, 17.84, 2.50, 1.87, 8.91, repro,
1998-06-06,-1.20, -5.62, 2.97, 2.26, 1.80, 8.43, repro,
1998-06-07,-4.20, -6.25, 2.33, 2.33, 1.82, 8.57, repro,
1998-06-08,-3.17, -5.60, -7.99, 2.37, 1.91, 9.11, repro,
1998-06-09,-4.72, -9.11, -6.10, 2.28, 1.83, 8.36, repro,
1998-06-10,-3.31, -7.08, 2.38, 2.35, 1.93, 8.76, repro,
1998-06-11,-3.02, -6.39, 6.83, 2.30, 1.81, 8.26, repro,
1998-06-12,-1.28, -5.27, 7.36, 2.40, 1.86, 8.63, repro,
1998-06-13,-3.79, -4.38, 1.91, 2.31, 1.94, 8.65, repro,
1998-06-14,-4.86, -1.00, 3.59, 2.21, 1.78, 8.19, repro,
1998-06-15,-2.69, 1.06, 15.93, 2.30, 1.83, 8.33, repro,
1998-06-16,-1.88, -2.51, 5.71, 2.33, 1.91, 8.82, repro,
1998-06-17,-1.87, 1.65, -6.94, 2.22, 1.80, 8.19, repro,
1998-06-18,-3.45, -2.20, -0.68, 2.23, 1.82, 8.20, repro,
1998-06-19,-5.15, -4.20, 13.83, 2.24, 1.80, 8.22, repro,
1998-06-20,-3.24, -4.94, 19.90, 2.25, 1.81, 8.21, repro,
1998-06-21,-4.14, -5.16, 8.00, 2.21, 1.80, 8.16, repro,
1998-06-22,-2.93, -6.02, 2.98, 2.29, 1.85, 8.38, repro,
1998-06-23,-0.27, -2.43, 3.40, 2.33, 1.87, 8.47, repro,
1998-06-24,-3.98, -3.21, 3.20, 2.25, 1.84, 8.30, repro,
1998-06-25,-2.68, -3.83, 6.20, 2.21, 1.80, 8.14, repro,
1998-06-26,-4.36, -3.00, 1.52, 2.64, 2.06, 9.57, repro,
1998-06-27,-0.34, -4.67, 0.10, 2.41, 1.92, 8.91, repro,
1998-06-28,-4.61, -1.38, -2.54, 2.25, 1.82, 8.32, repro,
1998-06-29,-2.56, -4.12, 5.96, 2.26, 1.83, 8.26, repro,
1998-06-30,-4.52, -3.20, 18.61, 2.57, 2.02, 9.33, repro,
1998-07-01,-4.34, -1.98, 7.86, 2.33, 1.90, 8.66, repro,
1998-07-02,-1.33, -3.69, 1.80, 2.20, 1.78, 8.01, repro,
1998-07-03,-3.66, -1.34, -1.33, 2.23, 1.78, 8.04, repro,
1998-07-04,-6.06, -3.46, 1.47, 2.34, 1.83, 8.50, repro,
1998-07-05,-3.38, -4.61, -3.51, 2.31, 1.84, 8.50, repro,
1998-07-06,-3.53, -5.04, -3.74, 2.23, 1.81, 8.27, repro,
1998-07-07,-3.20, -4.88, 5.30, 2.24, 1.85, 8.43, repro,
1998-07-08,-2.26, -4.81, -3.81, 2.36, 1.91, 8.66, repro,
1998-07-09,-4.77, -6.45, -5.44, 2.42, 1.85, 8.48, repro,
1998-07-10,-2.49, -5.23, 7.19, 2.38, 1.91, 8.43, repro,
1998-07-11,-2.70, -4.09, -0.59, 2.25, 1.79, 8.12, repro,
1998-07-12,-3.84, -4.91, -2.91, 2.19, 1.78, 8.13, repro,
1998-07-13,-4.78, -5.67, 0.87, 2.23, 1.77, 8.15, repro,
1998-07-14,-4.35, -4.92, 1.86, 2.29, 1.81, 8.34, repro,
1998-07-15,-2.28, -4.44, 9.44, 2.31, 1.84, 8.28, repro,
1998-07-16,-3.56, -3.51, -1.79, 2.30, 1.83, 8.35, repro,
1998-07-17,-6.36, -4.56, 13.72, 2.30, 1.80, 8.26, repro,
1998-07-18,-4.02, -2.97, 10.82, 2.42, 1.90, 8.65, repro,
1998-07-19,-2.03, -4.14, 2.75, 2.24, 1.78, 8.24, repro,
1998-07-20,-1.60, -5.43, 1.48, 2.42, 1.89, 8.74, repro,
1998-07-21,-6.86, -3.25, 15.37, 2.27, 1.82, 8.44, repro,
1998-07-22,-6.44, -7.39, 13.53, 2.43, 1.96, 8.96, repro,
1998-07-23,-6.17, -6.00, 10.53, 2.69, 2.15, 9.58, repro,
1998-07-24,-0.22, -6.97, -11.89, 2.48, 2.08, 9.29, repro,
1998-07-25,-5.14, -5.53, -0.30, 2.31, 1.77, 8.28, repro,
1998-07-26,-7.36, -5.00, -1.81, 2.26, 1.80, 8.28, repro,
1998-07-27,-5.14, -6.48, 11.50, 2.31, 1.83, 8.42, repro,
1998-07-28,-4.81, -4.99, 5.09, 2.64, 1.94, 9.31, repro,
1998-07-29,-4.15, -4.61, 3.71, 2.22, 1.75, 8.05, repro,
1998-07-30,-2.06, -2.94, 13.45, 2.25, 1.80, 8.11, repro,
1998-07-31,-3.28, -3.90, -4.19, 2.34, 1.82, 8.42, repro,
1998-08-01,-4.95, -4.58, 3.62, 2.36, 1.82, 8.51, repro,
1998-08-02,-4.63, -5.22, 3.28, 2.26, 1.79, 8.26, repro,
1998-08-03,-3.29, -5.02, 6.34, 2.39, 1.90, 8.60, repro,
1998-08-04,-3.26, -4.02, 0.51, 2.36, 1.82, 8.43, repro,
1998-08-05,-3.74, -5.75, -4.31, 2.31, 1.82, 8.26, repro,
1998-08-06,-3.76, -5.24, 8.34, 2.25, 1.77, 8.05, repro,
1998-08-07,-4.30, -5.40, 10.73, 2.31, 1.83, 8.29, repro,
1998-08-08,-4.12, -5.47, 2.76, 2.30, 1.80, 8.26, repro,
1998-08-09,-4.68, -3.31, -4.73, 2.46, 1.92, 8.95, repro,
1998-08-10,-3.61, -4.60, 1.37, 2.41, 1.90, 8.59, repro,
1998-08-11,-2.64, -0.99, 7.65, 2.35, 1.89, 8.51, repro,
1998-08-12,-5.45, -2.91, 14.57, 2.22, 1.78, 8.10, repro,
1998-08-13,-5.58, -5.08, 10.11, 2.20, 1.79, 8.17, repro,
1998-08-14,-3.79, -5.64, 6.86, 2.30, 1.92, 8.53, repro,
1998-08-15,-3.96, -4.89, 3.15, 2.27, 1.83, 8.23, repro,
1998-08-16,-5.87, -4.17, 0.05, 2.27, 1.84, 8.29, repro,
1998-08-17,-5.89, -4.40, 10.03, 2.36, 1.92, 8.53, repro,
1998-08-18,-5.97, -5.56, 10.86, 2.48, 2.05, 9.27, repro,
1998-08-19,-4.05, -2.99, 3.07, 2.31, 1.89, 8.58, repro,
1998-08-20,-4.21, -4.75, -1.85, 2.16, 1.75, 7.96, repro,
1998-08-21,-4.95, -4.72, 1.09, 2.20, 1.77, 8.04, repro,
1998-08-22,-3.89, -4.86, -5.42, 2.29, 1.79, 8.18, repro,
1998-08-23,-2.29, -4.00, -0.12, 2.22, 1.78, 8.09, repro,
1998-08-24,-5.38, -4.06, 19.09, 2.26, 1.82, 8.17, repro,
1998-08-25,-5.05, -5.12, 23.00, 2.20, 1.77, 8.03, repro,
1998-08-26,-7.53, -5.23, 8.17, 2.56, 1.95, 9.39, repro,
1998-08-27,-3.29, -4.17, 12.12, 2.30, 1.83, 8.48, repro,
1998-08-28,-4.39, -3.63, -4.99, 2.24, 1.80, 8.25, repro,
1998-08-29,-3.16, -4.31, 9.80, 2.23, 1.79, 8.15, repro,
1998-08-30,-5.97, -4.67, 9.84, 2.24, 1.85, 8.24, repro,
1998-08-31,-5.82, -4.24, 2.07, 2.21, 1.78, 8.12, repro,
1998-09-01,-5.78, -4.88, 7.65, 2.31, 1.88, 8.50, repro,
1998-09-02,-4.92, -4.15, 17.95, 2.29, 1.90, 8.70, repro,
1998-09-03,-5.81, -2.93, 3.70, 2.33, 1.85, 8.40, repro,
1998-09-04,-8.17, -1.52, 20.22, 2.37, 1.88, 8.75, repro,
1998-09-05,-6.02, -2.53, -0.63, 2.14, 1.75, 7.92, repro,
1998-09-06,-4.86, -3.28, -11.36, 2.17, 1.76, 8.01, repro,
1998-09-07,-4.73, -3.88, 10.00, 2.56, 2.06, 9.41, repro,
1998-09-08,-4.43, -1.29, 13.32, 2.33, 1.89, 8.48, repro,
1998-09-09,-5.98, -2.16, 7.20, 2.25, 1.81, 8.21, repro,
1998-09-10,-5.99, -2.87, 7.10, 2.19, 1.76, 8.02, repro,
1998-09-11,-5.58, -2.89, -4.56, 2.21, 1.82, 8.22, repro,
1998-09-12,-4.22, -1.81, -0.59, 2.14, 1.73, 8.01, repro,
1998-09-13,-5.71, -1.68, 1.05, 2.15, 1.71, 7.93, repro,
1998-09-14,-6.43, -2.27, 4.18, 2.24, 1.88, 8.42, repro,
1998-09-15,-5.76, -1.74, 1.05, 2.23, 1.84, 8.21, repro,
1998-09-16,-2.55, -0.60, -3.61, 2.25, 1.85, 8.32, repro,
1998-09-17,-6.85, -2.88, -1.25, 2.28, 1.89, 8.57, repro,
1998-09-18,-5.04, -4.06, 4.33, 2.29, 1.90, 8.51, repro,
1998-09-19,-6.33, -2.26, -2.57, 2.23, 1.81, 8.17, repro,
1998-09-20,-2.94, -0.82, -3.71, 2.31, 1.87, 8.50, repro,
1998-09-21,-3.85, 0.19, 4.31, 2.35, 1.86, 8.50, repro,
1998-09-22,-6.58, -0.89, -4.78, 2.36, 1.91, 8.81, repro,
1998-09-23,-4.23, -2.04, -6.44, 2.34, 2.00, 9.04, repro,
1998-09-24,-4.59, -3.14, -1.38, 2.29, 1.87, 8.46, repro,
1998-09-25,-4.16, -2.01, -2.82, 2.39, 1.88, 8.74, repro,
1998-09-26,-4.44, -0.25, -5.61, 2.33, 1.92, 8.61, repro,
1998-09-27,-4.24, -1.35, 12.79, 2.27, 1.84, 8.34, repro,
1998-09-28,-5.10, -0.65, 8.28, 2.32, 1.87, 8.61, repro,
1998-09-29,-4.45, -1.58, 3.17, 2.28, 1.86, 8.27, repro,
1998-09-30,-4.67, -0.82, 8.40, 2.28, 1.82, 8.27, repro,
1998-10-01,-5.99, 0.43, 4.05, 2.37, 1.92, 8.83, repro,
1998-10-02,-3.35, 0.46, -0.42, 2.22, 1.78, 8.13, repro,
1998-10-03,-5.29, -1.95, -0.02, 2.53, 2.08, 9.35, repro,
1998-10-04,-2.48, -2.68, -9.96, 2.47, 2.11, 9.06, repro,
1998-10-05,-3.28, -1.51, 0.55, 2.32, 1.86, 8.54, repro,
1998-10-06,-2.88, -0.69, -5.57, 2.29, 1.92, 8.55, repro,
1998-10-07,-3.50, 1.81, 2.00, 2.41, 1.97, 9.10, repro,
1998-10-08,-3.03, -0.82, -3.79, 2.67, 2.20, 9.82, repro,
1998-10-09,-3.42, -0.42, 1.26, 2.43, 1.96, 9.22, repro,
1998-10-10,-3.93, 2.55, -13.39, 2.57, 2.00, 9.32, repro,
1998-10-11,-5.72, 2.39, 2.90, 2.48, 2.02, 9.32, repro,
1998-10-12,-3.77, 1.43, -2.09, 2.49, 2.06, 9.23, repro,
1998-10-13,-4.01, 3.05, -7.15, 2.47, 2.01, 9.26, repro,
1998-10-14,-4.43, 2.63, 2.87, 2.58, 2.08, 9.18, repro,
1998-10-15,-4.93, 2.60, -13.09, 2.46, 2.04, 9.02, repro,
1998-10-16,-4.65, 2.15, -15.11, 2.36, 1.95, 8.70, repro,
1998-10-17,-5.35, 1.57, -1.76, 2.41, 1.99, 8.85, repro,
1998-10-18,-3.35, 1.57, -1.85, 2.44, 1.98, 8.88, repro,
1998-10-19,-7.76, 1.93, -1.80, 2.35, 1.96, 8.61, repro,
1998-10-20,-4.35, 2.90, -3.31, 2.31, 1.94, 8.46, repro,
1998-10-21,-3.71, 1.89, -6.35, 2.38, 1.99, 8.77, repro,
1998-10-22,-4.83, 0.75, -9.83, 2.33, 1.92, 8.65, repro,
1998-10-23,-2.23, 0.64, -8.43, 2.36, 1.97, 8.72, repro,
1998-10-24,-4.86, 2.52, -13.62, 2.42, 2.02, 9.04, repro,
1998-10-25,-3.64, 3.20, -13.00, 2.23, 1.85, 8.27, repro,
1998-10-26,-6.50, 2.50, -14.98, 2.34, 1.93, 8.69, repro,
1998-10-27,-5.10, -0.46, -4.25, 2.38, 1.96, 8.73, repro,
1998-10-28,-7.65, 1.27, -5.07, 2.26, 1.90, 8.48, repro,
1998-10-29,-5.49, 1.60, 3.60, 2.42, 2.00, 8.99, repro,
1998-10-30,-3.83, 2.17, -7.16, 2.29, 1.92, 8.41, repro,
1998-10-31,-5.06, 1.99, -10.14, 2.26, 1.86, 8.34, repro,
1998-11-01,-5.16, 0.30, 0.11, 2.34, 1.96, 8.55, repro,
1998-11-02,-4.98, 0.47, -1.97, 2.35, 2.02, 8.61, repro,
1998-11-03,-2.76, -0.77, 5.54, 2.46, 2.03, 8.90, repro,
1998-11-04,-5.23, 1.80, -2.80, 2.22, 1.80, 8.07, repro,
1998-11-05,-4.37, 2.08, 2.97, 2.45, 2.06, 9.09, repro,
1998-11-06,-4.31, 1.51, -4.54, 2.38, 1.93, 8.60, repro,
1998-11-07,-5.58, 0.96, -9.46, 2.35, 1.93, 8.58, repro,
1998-11-08,-3.60, 0.45, 2.85, 2.32, 1.89, 8.42, repro,
1998-11-09,-4.63, 1.59, 1.47, 2.28, 1.84, 8.42, repro,
1998-11-10,-3.13, 0.16, -5.34, 2.43, 2.03, 9.16, repro,
1998-11-11,-2.91, 2.95, 5.43, 2.30, 1.86, 8.43, repro,
1998-11-12,-5.01, 1.92, -5.34, 2.36, 1.92, 8.80, repro,
1998-11-13,-3.35, 1.58, 0.90, 2.22, 1.81, 8.26, repro,
1998-11-14,-4.63, 0.38, 8.53, 2.30, 1.83, 8.50, repro,
1998-11-15,-3.46, 2.82, 10.30, 2.25, 1.82, 8.21, repro,
1998-11-16,-4.43, 1.92, 8.35, 2.25, 1.85, 8.25, repro,
1998-11-17,-1.40, 0.88, 2.63, 2.29, 1.89, 8.62, repro,
1998-11-18,-3.85, 1.07, -6.59, 2.22, 1.79, 8.06, repro,
1998-11-19,-4.44, 1.12, -3.29, 2.28, 1.80, 8.35, repro,
1998-11-20,-5.71, 1.78, 2.26, 2.25, 1.80, 8.20, repro,
1998-11-21,-4.90, 3.93, 2.91, 2.27, 1.82, 8.14, repro,
1998-11-22,-3.72, 2.17, 2.54, 2.25, 1.79, 8.22, repro,
1998-11-23,-3.51, -0.41, 12.13, 2.30, 1.84, 8.44, repro,
1998-11-24,-4.35, 2.03, 11.54, 2.24, 1.78, 8.07, repro,
1998-11-25,-4.00, 0.64, -1.03, 2.43, 1.89, 8.94, repro,
1998-11-26,-4.02, 1.68, 10.29, 2.32, 1.87, 8.79, repro,
1998-11-27,-3.38, 2.08, 3.83, 2.30, 1.81, 8.43, repro,
1998-11-28,-4.03, 1.67, 8.05, 2.26, 1.81, 8.48, repro,
1998-11-29,-4.34, 1.43, 9.93, 2.25, 1.83, 8.38, repro,
1998-11-30,-4.91, 2.47, 13.80, 2.38, 1.90, 8.92, repro,
1998-12-01,-4.72, 1.44, 7.09, 2.33, 1.83, 8.51, repro,
1998-12-02,-2.34, 1.29, 6.55, 2.29, 1.82, 8.26, repro,
1998-12-03,-4.50, 2.04, 9.52, 2.27, 1.78, 8.38, repro,
1998-12-04,-5.13, 1.19, 10.72, 2.31, 1.86, 8.57, repro,
1998-12-05,-4.10, 2.07, 6.21, 2.38, 1.94, 8.82, repro,
1998-12-06,-4.44, 1.32, 10.45, 2.35, 1.88, 8.68, repro,
1998-12-07,-3.30, 1.97, 8.36, 2.26, 1.84, 8.47, repro,
1998-12-08,-4.12, 1.59, 1.72, 2.44, 2.01, 9.21, repro,
1998-12-09,-2.96, 0.81, -8.21, 2.28, 1.88, 8.52, repro,
1998-12-10,-5.26, 2.67, -0.82, 2.22, 1.81, 8.25, repro,
1998-12-11,-2.99, 0.55, 5.41, 2.31, 1.85, 8.46, repro,
1998-12-12,-2.40, 1.45, 2.74, 2.25, 1.82, 8.27, repro,
1998-12-13,-4.13, 1.75, -6.33, 2.21, 1.80, 8.18, repro,
1998-12-14,-3.32, 3.63, -9.14, 2.34, 1.98, 8.66, repro,
1998-12-15,-3.25, 1.51, -0.98, 2.53, 2.09, 9.14, repro,
1998-12-16,-4.41, 1.22, 4.29, 2.38, 1.95, 8.90, repro,
1998-12-17,-5.59, 1.37, 3.48, 2.34, 2.00, 8.97, repro,
1998-12-18,-4.87, 1.18, -10.16, 2.31, 1.95, 8.83, repro,
1998-12-19,-5.07, 1.43, -16.93, 2.31, 1.93, 8.69, repro,
1998-12-20,-2.20, 2.33, -5.04, 2.29, 1.92, 8.65, repro,
1998-12-21,-5.13, 3.16, -7.01, 2.21, 1.83, 8.43, repro,
1998-12-22,-3.10, 1.64, 5.71, 2.52, 2.02, 9.28, repro,
1998-12-23,-5.22, 0.71, -4.45, 2.27, 1.90, 8.62, repro,
1998-12-24,-5.92, 2.99, -1.20, 2.58, 2.04, 9.48, repro,
1998-12-25,-4.80, 0.81, -3.60, 2.53, 2.03, 9.52, repro,
1998-12-26,-6.18, 1.43, 0.23, 2.37, 1.99, 8.90, repro,
1998-12-27,-5.81, 0.90, 3.21, 2.28, 1.91, 8.51, repro,
1998-12-29,-0.67, 1.27, -3.07, 3.03, 2.51, 10.77, repro,
1998-12-30,-4.38, 1.79, 4.07, 2.49, 2.00, 9.30, repro,
1998-12-31,-2.95, 3.19, -7.02, 2.30, 1.92, 8.56, repro,
1999-01-01,-4.63, -1.58, 7.09, 2.66, 2.34, 10.14, repro,
1999-01-02,-5.61, -0.19, 1.69, 2.44, 2.00, 9.00, repro,
1999-01-03,-3.74, 0.09, -2.09, 2.24, 1.82, 8.23, repro,
1999-01-04,-3.48, 3.99, -0.92, 2.44, 1.93, 8.78, repro,
1999-01-05,-2.85, 3.91, -4.69, 2.38, 1.90, 8.64, repro,
1999-01-06,-4.58, 0.16, -11.23, 2.38, 2.01, 8.84, repro,
1999-01-07,-5.41, -0.33, -8.73, 2.37, 2.00, 9.04, repro,
1999-01-08,-3.30, -1.10, -5.42, 2.22, 1.82, 7.96, repro,
1999-01-09,-2.67, -0.71, -3.57, 2.30, 1.89, 8.33, repro,
1999-01-10,-3.88, -1.05, -8.39, 2.39, 1.98, 8.66, repro,
1999-01-11,-2.62, -0.85, 1.11, 2.43, 1.93, 8.77, repro,
1999-01-12,-2.97, -0.22, 2.08, 2.38, 1.85, 8.80, repro,
1999-01-13,-3.89, -3.00, 2.06, 2.28, 1.89, 8.41, repro,
1999-01-14,-3.38, -1.74, -15.65, 2.36, 1.98, 9.00, repro,
1999-01-15,3.29, -2.21, 1.43, 9.90, 9.77, 43.04, repro,
1999-01-16,-6.09, -2.01, -0.42, 2.21, 1.78, 8.05, repro,
1999-01-17,-3.93, -2.50, -0.21, 2.19, 1.78, 8.13, repro,
1999-01-18,-4.27, -2.30, 0.54, 2.25, 1.81, 8.21, repro,
1999-01-19,-4.04, 0.14, 3.37, 2.19, 1.78, 8.10, repro,
1999-01-20,-4.44, -2.25, -7.49, 2.29, 1.91, 8.44, repro,
1999-01-21,-4.02, -2.16, -15.14, 2.29, 1.94, 8.56, repro,
1999-01-22,-3.64, 0.50, -7.76, 2.23, 1.85, 8.29, repro,
1999-01-23,-5.03, -0.23, -4.89, 2.30, 1.95, 8.58, repro,
1999-01-24,-1.76, 0.79, 0.25, 2.26, 1.89, 8.44, repro,
1999-01-25,-1.63, -2.36, -8.68, 2.55, 2.03, 9.44, repro,
1999-01-26,-2.79, -0.96, -19.70, 2.37, 2.04, 8.94, repro,
1999-01-27,-4.55, 0.09, -14.37, 2.28, 1.86, 8.55, repro,
1999-01-28,-5.10, -0.65, -1.71, 2.29, 1.90, 8.50, repro,
1999-01-29,-3.34, -0.60, -14.88, 2.39, 1.97, 8.75, repro,
1999-01-30,-0.87, -2.48, -13.14, 2.96, 2.37, 10.78, repro,
1999-01-31,-4.62, -0.58, -19.53, 2.37, 2.02, 8.80, repro,
1999-02-01,-4.92, -0.53, -14.78, 2.30, 1.86, 8.60, repro,
1999-02-02,-2.58, -0.08, -4.05, 2.33, 2.00, 8.87, repro,
1999-02-03,-6.81, 0.68, -2.86, 6.00, 4.53, 19.75, repro,
1999-02-04,-2.93, 1.83, -2.63, 2.23, 1.87, 8.32, repro,
1999-02-06,-55.40, -96.24, 66.75, 155.77, 262.00, 601.52, repro,
1999-02-07,-6.43, -8.31, 1.02, 9.68, 7.96, 34.19, repro,
1999-02-08,28.87, -20.50, -205.92, 74.44, 110.24, 198.00, repro,
1999-02-09,-8.19, 2.41, -24.56, 7.70, 5.62, 28.25, repro,
1999-04-06,-1.08, -4.18, -7.92, 2.47, 1.97, 8.52, repro,
1999-04-11,-3.18, -5.84, 4.73, 4.26, 3.22, 14.53, repro,
1999-04-12,-2.49, -3.65, -6.82, 2.29, 1.86, 8.16, repro,
1999-04-13,-1.41, -3.51, -5.25, 2.31, 1.86, 8.11, repro,
1999-04-14,-2.03, -5.38, -8.43, 2.26, 1.83, 8.01, repro,
1999-04-15,-0.39, -4.61, -2.82, 2.31, 1.86, 8.18, repro,
1999-04-16,-2.25, -4.39, -0.27, 2.35, 1.87, 8.34, repro,
1999-04-17,-3.09, -3.89, -2.92, 2.40, 1.98, 8.80, repro,
1999-04-18,-2.14, -4.90, 1.62, 2.49, 2.01, 9.14, repro,
1999-04-19,-2.74, -4.37, -1.36, 2.28, 1.84, 8.10, repro,
1999-04-20,-1.38, -4.37, -7.77, 2.32, 1.88, 8.30, repro,
1999-04-21,-2.08, -4.24, -10.19, 2.36, 1.90, 8.49, repro,
1999-04-22,-2.41, -3.49, -0.19, 2.35, 1.90, 8.30, repro,
1999-04-23,-3.79, -4.34, -2.43, 2.43, 1.96, 8.60, repro,
1999-04-24,-2.48, -4.08, -7.94, 2.35, 1.92, 8.39, repro,
1999-04-25,-2.56, -3.93, -21.70, 2.41, 1.98, 8.84, repro,
1999-04-26,-1.81, -5.97, -3.88, 2.34, 1.90, 8.27, repro,
1999-04-27,-1.58, -5.36, 1.13, 2.36, 1.90, 8.33, repro,
1999-04-28,-3.29, -7.64, -3.59, 2.35, 1.89, 8.30, repro,
1999-04-29,-2.73, -7.49, -8.42, 2.38, 1.90, 8.54, repro,
1999-04-30,-1.55, -8.16, -14.25, 2.45, 2.00, 8.90, repro,
1999-05-01,-2.44, -7.31, -9.67, 2.42, 1.90, 8.69, repro,
1999-05-02,-1.41, -5.72, -9.34, 2.41, 1.92, 8.88, repro,
1999-05-03,-0.35, -7.88, 0.48, 2.43, 1.93, 8.74, repro,
1999-05-04,-3.62, -5.23, 3.76, 2.44, 1.93, 8.72, repro,
1999-05-05,-4.06, -5.99, -0.31, 2.41, 1.98, 8.81, repro,
1999-05-06,-2.29, -7.68, 1.82, 2.37, 1.88, 8.52, repro,
1999-05-07,-1.67, -4.50, 3.72, 2.31, 1.87, 8.19, repro,
1999-05-08,-0.17, -3.28, -1.95, 2.42, 1.93, 8.75, repro,
1999-05-09,-2.51, -2.92, -6.12, 2.38, 1.90, 8.61, repro,
1999-05-10,-1.52, -2.89, -0.68, 2.42, 1.93, 8.64, repro,
1999-05-11,-2.07, -4.40, -1.48, 2.35, 1.85, 8.31, repro,
1999-05-12,-3.29, -5.17, -2.95, 2.37, 1.87, 8.47, repro,
1999-05-13,-3.83, -5.44, 0.98, 2.38, 1.87, 8.67, repro,
1999-05-14,-3.36, -6.65, -8.97, 2.36, 1.87, 8.34, repro,
1999-05-15,-1.74, -6.73, -4.21, 2.42, 1.94, 8.68, repro,
1999-05-16,-2.21, -6.63, -8.96, 2.50, 1.90, 8.88, repro,
1999-05-17,-2.14, -5.26, 0.00, 2.45, 1.93, 8.69, repro,
1999-05-18,-3.64, -6.21, -5.02, 2.49, 1.95, 9.15, repro,
1999-05-19,-3.98, -6.24, -12.73, 2.34, 1.90, 8.70, repro,
1999-05-20,-2.42, -3.34, 7.26, 3.40, 2.82, 12.97, repro,
1999-06-07,-3.27, -3.32, 19.71, 3.56, 2.82, 12.71, repro,
1999-06-08,-3.68, -8.34, 13.67, 2.32, 1.93, 8.33, repro,
1999-06-09,-3.06, -7.18, 9.63, 2.31, 1.93, 8.38, repro,
1999-06-10,-4.24, -7.18, 8.36, 2.40, 2.01, 8.68, repro,
1999-06-11,-3.27, -6.31, 6.00, 2.36, 2.00, 8.70, repro,
1999-06-12,-2.88, -8.30, 3.52, 2.32, 1.90, 8.20, repro,
1999-06-13,-1.93, -3.85, 7.17, 2.37, 1.97, 8.55, repro,
1999-06-14,-5.05, -3.17, 8.32, 2.36, 2.13, 8.88, repro,
1999-06-15,-3.83, -0.82, 7.71, 2.34, 2.03, 8.58, repro,
1999-06-16,-5.00, -3.89, 5.99, 2.33, 1.94, 8.40, repro,
1999-06-17,-4.13, -4.37, 1.17, 2.33, 1.97, 8.48, repro,
1999-06-18,-5.40, -3.67, 2.56, 2.34, 1.90, 8.18, repro,
1999-06-19,-3.09, -1.83, -3.69, 2.37, 1.98, 8.57, repro,
1999-06-20,-3.76, -2.69, -12.02, 2.86, 2.43, 10.35, repro,
1999-06-21,-2.70, -2.87, 9.71, 3.20, 2.59, 11.47, repro,
1999-06-22,-2.67, -2.74, 7.71, 2.36, 2.00, 8.55, repro,
1999-06-23,-4.24, -2.39, 9.17, 2.36, 1.93, 8.39, repro,
1999-06-24,-5.79, -2.66, 6.90, 2.35, 1.94, 8.35, repro,
1999-06-25,-3.04, -1.23, -1.80, 2.40, 2.13, 8.83, repro,
1999-06-26,-5.11, -2.02, 16.85, 2.29, 1.91, 8.36, repro,
1999-06-27,-3.81, -2.78, 7.82, 2.45, 2.04, 8.89, repro,
1999-06-28,-3.70, -1.43, 9.24, 2.27, 1.88, 8.26, repro,
1999-06-29,-3.83, 1.25, 8.54, 2.41, 2.03, 8.94, repro,
1999-06-30,-4.95, 1.48, 21.45, 2.30, 1.92, 8.39, repro,
1999-07-01,-4.51, -2.78, 1.99, 2.45, 2.15, 9.17, repro,
1999-07-02,-3.60, -0.50, 19.52, 2.50, 2.08, 9.10, repro,
1999-07-03,-2.42, 3.60, -3.40, 2.50, 2.11, 9.27, repro,
1999-07-04,-5.36, -1.20, 7.00, 2.39, 1.94, 8.52, repro,
1999-07-05,-5.19, -0.34, 7.03, 2.42, 2.00, 8.61, repro,
1999-07-06,-7.72, -0.76, 10.28, 2.44, 2.06, 8.93, repro,
1999-07-07,-4.53, -2.28, 0.05, 2.49, 2.11, 9.05, repro,
1999-07-08,-1.80, -2.54, -1.84, 2.41, 2.02, 8.77, repro,
1999-07-09,-4.19, -4.07, 11.71, 2.37, 1.97, 8.56, repro,
1999-07-10,-3.14, -4.38, 2.84, 2.36, 1.96, 8.52, repro,
1999-07-11,-5.66, -5.11, 2.33, 2.48, 2.04, 8.92, repro,
1999-07-12,-5.20, -7.86, 15.97, 2.45, 2.01, 8.81, repro,
1999-07-13,-5.16, -5.39, -1.94, 2.33, 1.94, 8.52, repro,
1999-07-14,-5.72, -5.37, 1.53, 2.27, 1.90, 8.39, repro,
1999-07-15,-5.56, -2.82, 7.17, 2.30, 1.91, 8.29, repro,
1999-07-16,-6.12, -2.78, 2.81, 2.29, 1.94, 8.51, repro,
1999-07-17,-3.92, -4.51, 0.71, 2.21, 1.82, 8.05, repro,
1999-07-18,-4.26, -7.55, 0.57, 2.35, 1.95, 8.58, repro,
1999-07-19,-5.38, -3.79, 2.71, 2.35, 1.99, 8.66, repro,
1999-07-20,-4.38, -7.72, 1.48, 2.34, 1.95, 8.62, repro,
1999-07-21,-5.76, -4.27, 3.70, 2.28, 1.85, 8.23, repro,
1999-07-22,-5.41, -4.09, -11.08, 2.31, 1.93, 8.52, repro,
1999-07-23,-4.90, -6.10, -1.48, 2.36, 1.98, 8.58, repro,
1999-07-24,-6.24, -1.59, 13.77, 2.65, 2.15, 9.55, repro,
1999-07-25,-5.43, -3.01, 4.93, 2.39, 1.98, 8.56, repro,
1999-07-26,-2.87, -2.37, 21.52, 2.40, 2.12, 8.90, repro,
1999-07-27,-4.50, -4.01, 7.17, 2.37, 1.99, 8.65, repro,
1999-07-28,-4.43, -2.93, 14.08, 2.35, 1.93, 8.54, repro,
1999-07-29,-2.44, -3.79, 14.61, 2.36, 2.03, 8.73, repro,
1999-07-30,-5.40, 0.04, 15.55, 2.42, 2.00, 8.65, repro,
1999-07-31,-5.49, -2.44, 12.61, 2.32, 1.93, 8.34, repro,
1999-08-01,-5.35, -3.54, 14.56, 2.36, 1.99, 8.64, repro,
1999-08-02,-3.04, -4.47, -0.12, 2.46, 2.06, 9.08, repro,
1999-08-03,-4.54, -4.40, 7.62, 2.35, 1.99, 8.54, repro,